Location: Unspecified
(0.0000°N, 0.0000°E)
Time: 16:22:11
(UTC+00:00)

Vanguard 2 Rocket - Pass Details

Date: 23 November 2019
Orbit: 554 x 3326 km, 32.9° (Epoch: 13 December)

Event Time Altitude Azimuth Distance (km) Brightness Sun altitude
Rises 19:14:42 0° 235° (SW) 5,903 12.5 -20.6°
Reaches altitude 10° 19:19:17 10° 236° (SW) 4,442 11.5 -21.7°
Maximum altitude 19:30:19 86° 324° (NW) 1,245 7.4 -24.2°
Enters shadow 19:32:31 48° 50° (NE) 1,396 7.4 -24.7°
Drops below altitude 10° 19:36:21 10° 53° (NE) 2,533 - -25.6°
Sets 19:38:20 0° 54° (NE) 3,266 - -26.1°
